GW4658 Weather Reports


Display with metric or nautical units.
time (UTC)temp
F
wind
direction
speed
MPH
gust
MPH
rain 1hr
in
rain 24hr
in
rain mn
in
humidity
%
barometer
mb
20260504081539 48 359 2.0 4.0 0.00 0.00 0.00 66 1007.7
20260504044554 52 359 1.0 4.0 0.00 0.00 0.00 59 1010.0
20260504043004 53 359 2.0 3.0 0.00 0.00 0.00 57 1010.1
20260504041513 54 359 3.0 4.0 0.00 0.00 0.00 55 1010.2
20260504040030 56 359 4.0 6.0 0.00 0.00 0.00 52 1010.5
20260504034541 57 359 8.0 9.0 0.00 0.00 0.00 51 1010.4
20260504033052 57 359 7.0 8.0 0.00 0.00 0.00 50 1010.6
20260504031558 58 359 7.0 8.0 0.00 0.00 0.00 49 1010.5
20260504031504 58 359 7.0 8.0 0.00 0.00 0.00 49 1010.5
20260504030023 57 359 6.0 8.0 0.00 0.00 0.00 50 1010.7
20260504024527 57 359 3.0 5.0 0.00 0.00 0.00 54 1010.4
20260504023037 58 359 3.0 8.0 0.00 0.00 0.00 51 1010.3
20260504021554 61 359 5.0 8.0 0.00 0.00 0.00 45 1010.2
20260504020059 63 275 7.0 12.0 0.00 0.00 0.00 41 1010.1
20260504014512 63 266 8.0 11.0 0.00 0.00 0.00 41 1010.0
20260504013019 64 277 6.0 10.0 0.00 0.00 0.00 39 1009.9
20260504011531 65 278 7.0 9.0 0.00 0.00 0.00 39 1009.7
20260504010041 67 274 7.0 11.0 0.00 0.00 0.00 36 1009.6
20260504004553 69 270 8.0 13.0 0.00 0.00 0.00 34 1009.5
20260504003101 70 280 9.0 14.0 0.00 0.00 0.00 31 1009.6
20260504001513 71 275 12.0 17.0 0.00 0.00 0.00 30 1009.5
20260504000020 72 294 9.0 16.0 0.00 0.00 0.00 30 1009.5
20260503234543 72 293 8.0 16.0 0.00 0.00 0.00 28 1009.3
20260503233037 73 276 10.0 18.0 0.00 0.00 0.00 28 1009.3
20260503231549 73 281 15.0 25.0 0.00 0.00 0.00 27 1009.2
20260503230059 73 293 11.0 23.0 0.00 0.00 0.00 28 1009.3
20260503224512 74 293 14.0 21.0 0.00 0.00 0.00 27 1009.0
20260503223015 74 316 11.0 17.0 0.00 0.00 0.00 31 1009.1
20260503221529 74 285 16.0 26.0 0.00 0.00 0.00 30 1009.0
20260503220046 74 285 12.0 20.0 0.00 0.00 0.00 32 1009.0
20260503214549 74 286 12.0 25.0 0.00 0.00 0.00 30 1009.0
20260503213108 74 280 16.0 25.0 0.00 0.00 0.00 30 1008.9
20260503211511 74 313 14.0 21.0 0.00 0.00 0.00 33 1009.0
20260503210021 74 287 14.0 23.0 0.00 0.00 0.00 34 1009.0
20260503204537 74 258 13.0 25.0 0.00 0.00 0.00 34 1009.0
20260503203051 74 297 14.0 23.0 0.00 0.00 0.00 32 1009.2
20260503201557 74 275 16.0 24.0 0.00 0.00 0.00 33 1009.2
20260503200009 74 270 20.0 31.0 0.00 0.00 0.00 36 1009.3
20260503194514 72 310 12.0 24.0 0.00 0.00 0.00 36 1009.6
20260503193035 73 279 14.0 29.0 0.00 0.00 0.00 38 1009.7
20260503191537 71 275 10.0 20.0 0.00 0.00 0.00 39 1009.8
20260503190055 71 296 12.0 20.0 0.00 0.00 0.00 40 1009.9
20260503184607 70 265 9.0 20.0 0.00 0.00 0.00 39 1010.1
20260503183009 70 214 7.0 21.0 0.00 0.00 0.00 44 1010.2
20260503181514 69 206 12.0 20.0 0.00 0.00 0.00 43 1010.6
20260503180029 69 242 13.0 20.0 0.00 0.00 0.00 46 1010.8
20260503174534 67 264 13.0 22.0 0.00 0.00 0.00 44 1011.0
20260503173056 66 241 11.0 23.0 0.00 0.00 0.00 45 1011.3
20260503171553 65 241 12.0 22.0 0.00 0.00 0.00 46 1011.5